Regional Weather Roundup
Issued by NWS Charleston, SC

Current Version | Previous Version | Graphics & Text | Print | Product List | Glossary On
Versions: 1 2 3 4 5 6 7 8 9 10 11 12 13 14 15 16 17 18 19 20 21 22 23 24 25 26 27 28 29 30 31 32 33 34 35 36 37 38 39 40 41 42 43 44 45 46 47 48 49 50
000
ASUS42 KCHS 301012
RWRCHS

REGIONAL WEATHER ROUNDUP
NATIONAL WEATHER SERVICE CHARLESTON SC
600 AM EDT SUN AUG 30 2015

NOTE: "FAIR" INDICATES FEW OR NO CLOUDS BELOW 12,000 FEET WITH NO
SIGNIFICANT WEATHER AND/OR OBSTRUCTIONS TO VISIBILITY.

NOT ALL STATIONS ARE QUALITY CONTROLLED BY THE NATIONAL
WEATHER SERVICE. USE DATA WITH CAUTION...ESPECIALLY
DEWPOINT OBSERVATIONS.

SCZ027-030-031-034>040-042>050-301100-
...SOUTHEAST SOUTH CAROLINA...

CITY           SKY/WX    TMP DP  RH WIND       PRES   REMARKS
N CHARLESTON   LGT RAIN  74  71  91 SW3       30.09R
WATERFRONT PRK   N/A     74  73  96 CALM      30.06R
MOUNT PLEASANT LGT RAIN  73  72  94 CALM      30.09S
JOHNS ISLAND   DRIZZLE   73  73 100 CALM      30.10R
PINOPOLIS        N/A     77  70  78 VRB3      30.02R
MONCKS CORNER  LGT RAIN  73  68  83 CALM      30.11R
SUMMERVILLE    RAIN      72  72 100 CALM      30.10S
BEAUFORT MCAS  CLOUDY    74  72  93 E3        30.10R
BEAUFORT ARPT  FAIR      73  73 100 CALM      30.09R
HILTON HEAD IS NOT AVBL
WALTERBORO     LGT RAIN  73  72  94 E6        30.11R
ALLENDALE      FAIR      72  68  88 CALM      30.08S

...SOUTHERN MIDLANDS AND PEE DEE...

CITY           SKY/WX    TMP DP  RH WIND       PRES   REMARKS
GEORGETOWN     NOT AVBL
KINGSTREE      NOT AVBL
ORANGEBURG     CLOUDY    72  62  71 NE3       30.10S
BARNWELL       DRIZZLE   72  64  78 CALM      30.10S
AIKEN          PTSUNNY   68  59  73 CALM      30.15R
MANNING        FAIR      68  63  83 CALM      30.10S
COLUMBIA       CLOUDY    72  62  71 CALM      30.11R
SUMTER         CLOUDY    69  61  76 NE2       30.10R
FLORENCE       MOCLDY    70  63  78 CALM      30.11S
MYRTLE BEACH   MOCLDY    73  68  83 N8        30.12R
N MYRTLE BEACH LGT RAIN  73  70  90 CALM      30.11R

$$

GAZ063-065-086>088-099>101-113>116-118-119-134>141-150-301100-
...SOUTHEAST GEORGIA...

CITY           SKY/WX    TMP DP  RH WIND       PRES   REMARKS
SAVANNAH ARPT  CLOUDY    72  70  93 NE6       30.07F
HUNTER AAF     CLOUDY    73  73 100 NE5       30.05R
FORT STEWART   CLOUDY    73  71  93 CALM      30.03S
STATESBORO     LGT RAIN  71  32  23 E3        30.07F
SYLVANIA       LGT RAIN  72  72  99 SE3       30.09S
CLAXTON        NOT AVBL

...CSRA...CENTRAL AND FAR SOUTHEAST GEORGIA...

CITY           SKY/WX    TMP DP  RH WIND       PRES   REMARKS
THOMSON        CLOUDY    70  69  99 CALM      30.14S
AUGUSTA-BUSH   CLOUDY    71  65  81 CALM      30.09S
AUGUSTA-DANIEL CLOUDY    80  60  50 NE6       30.10F
SWAINSBORO     CLOUDY    73  70  88 SE8       30.08R
VIDALIA        CLOUDY    72  70  94 E8        30.05F
EASTMAN        PTSUNNY   73  73 100 CALM      30.07R
HAZLEHURST     CLOUDY    74  74 100 CALM      30.03S FOG
ALMA           CLOUDY    74  73  97 NE3       30.03S
WAYCROSS       CLOUDY    76  76 100 CALM      30.04R
JESUP          DRIZZLE   75  73  94 E3        30.04R
BAXLEY         DRIZZLE   73  73 100 E3        30.04R
BRUNSWICK      CLOUDY    72  72 100 CALM      30.06R
SAINT SIMONS   CLOUDY    75  74  96 NE7       30.05R

$$

SCZ027-028-034-036>038-045-046-048>050-GAZ119-141-301100-
...LAKE AND SUPPLEMENTAL COASTAL OBSERVATIONS...

STATION/POSITION TIME  TEMP    WIND        PRES    WAVE   SWELL
                       AIR SEA DIR/SP/G            HT/PER HT/PER/DIR
                 (UTC) (F)     (DEG/KT/KT) (MB)    (FT/S) (FT/S/D)
UPR LAKE MARION  NOT AVBL
WINYAH BAY       NOT AVBL
LAKE MURRAY      0900   74      CALM  /  2 1019.0S
ACE BASIN NERRS  NOT AVBL
FORT PULASKI     NOT AVBL
SAPELO ISLAND    0900   75     360/  5     1017.0S

$$

ANZ835-935-AMZ111-154-330-350-352-354-370-450-454-472-301100-
...C-MAN AND BUOY OBSERVATIONS...

STATION/POSITION TIME  TEMP    WIND        PRES    WAVE   SWELL
                       AIR SEA DIR/SP/G            HT/PER HT/PER/DIR
                 (UTC) (F)     (DEG/KT/KT) (MB)    (FT/S) (FT/S/D)
BUOY 41004       0950   77 85  330/  4/  6 1018.2F   4/11   3/11
BUOY 41008       0950   81 85  150/ 12/ 14 1018.1R   5/11   3/110/11
FOLLY BEACH CMAN 0900   73     270/  4/  6 1018.6R
CAPERS NEARSHORE NOT AVBL
FRIPP NEARSHORE  NOT AVBL


STATION/POSITION TIME  TEMP    WIND        PRES    WAVE   SWELL
                       AIR SEA DIR/SP/G            HT/PER HT/PER/DIR
                 (UTC) (F)     (DEG/KT/KT) (MB)    (FT/S) (FT/S/D)
5E ST. MARYS GA  0921      86                N/A     6/11   2/110/11
FRYING PAN BUOY  0950   80 81   70/  8/ 10 1019.2S   4/11   3/140/11
BUOY 41025       0950   78 81  350/ 10/ 12 1018.6R   4/10   3/100/10
CAPE LOOKOUT NC  0900   74     350/  4/  4 1019.0R
BUOY 41002       0950   83 84  230/  4/  6 1019.3R   4/10   5/120/10
BUOY 41010       0920   84 85  130/ 14/ 16 1017.1R
ST AUGUSTINE FL  1000   80 84  140/ 17/ 19 1017.1R


$$


USA.gov is the U.S. government's official web portal to all federal, state and local government web resources and services.